User: anonymous   Login
Location: Walnut Point State Park
(39.6958°N, 88.0345°W)
Time: 23:50:07
(UTC-05:00)
Language:

ATLAS 3B R/B - Orbit

View from above orbital plane
View from above orbital plane
View from above satellite
View from above satellite

Ground track
Ground track

The orbit data is extracted from the following two-line orbital elements,

1 28538U 05004B   17200.02343194 0.00000000  00000-0  00000-0 0    04
2 28538  63.8208 216.3010 0139000 173.6665 186.3335 13.43100134    04
Epoch (UTC): 19 July 2017 00:33:44
Eccentricity: 0.0139000
inclination: 63.8208°
perigee height: 994 km
apogee height: 1201 km
right ascension of ascending node: 216.3010°
argument of perigee: 173.6665°
revolutions per day: 13.43100134
mean anomaly at epoch: 186.3335°
orbit number at epoch: 0

The dashed part of the orbit path shows where the satellite is in the earth's shadow,  

DLR